Weather History for KMLF - October, 2013

Change the Weather History Date:

Thursday, October 24, 2013

  Actual Average Record
Temperature  
Mean Temperature 50 °F -  
Max Temperature 70 °F 59 °F 78 °F (2014)
Min Temperature 30 °F 29 °F 19 °F (2001)
Degree Days  
Heating Degree Days 15    
Moisture  
Dew Point 22 °F    
Average Humidity 34    
Maximum Humidity 59    
Minimum Humidity 9    
Precipitation  
Precipitation 0.00 in - - ()
Sea Level Pressure  
Sea Level Pressure 30.08 in    
Wind  
Wind Speed 4 mph (North)    
Max Wind Speed 13 mph    
Max Gust Speed -    
Visibility 10 miles    
Events      
Averages and records for this station are not official NWS values.
T = Trace of Precipitation, MM = Missing Value Source: NWS Daily Summary

Daily Weather History Graph

Daily Weather History Graph

Search for Another Location

Airport or City:

Trip Planner

Search our weather history database for the weather conditions in past years. The results will help you decide how hot, cold, wet, or windy it might be!

Date:

Astronomy

Oct. 24, 2013 Rise Set
Actual Time 7:50 AM MDT 6:41 PM MDT
Civil Twilight 7:23 AM MDT 7:08 PM MDT
Nautical Twilight 6:52 AM MDT 7:39 PM MDT
Astronomical Twilight 6:21 AM MDT 8:10 PM MDT
Moon 11:10 PM MDT (10/24) 12:52 PM MDT (10/24)
Length of Visible Light 11h 45m
Length of Day
10h 51m
Waning Gibbous, 70% of the Moon is Illuminated
Oct 24
Waning Gibbous
Oct 26
Last Quarter
Nov 3
New
Nov 9
First Quarter
Nov 17
Full

Hourly Weather History & Observations

Time (MDT) Temp. Windchill Dew Point Humidity Pressure Visibility Wind Dir Wind Speed Gust Speed Precip Events Conditions
12:52 AM 37.9 °F - 19.0 °F 47% 30.06 in 10.0 mi Calm Calm - N/A   Clear
1:52 AM 37.9 °F - 19.0 °F 47% 30.05 in 10.0 mi Calm Calm - N/A   Clear
2:52 AM 37.0 °F - 19.0 °F 48% 30.05 in 10.0 mi Calm Calm - N/A   Clear
3:52 AM 34.0 °F 28.8 °F 19.0 °F 54% 30.06 in 10.0 mi NW 5.8 mph - N/A   Clear
4:52 AM 34.0 °F 29.8 °F 18.0 °F 52% 30.06 in 10.0 mi WNW 4.6 mph - N/A   Clear
5:52 AM 33.1 °F - 18.0 °F 54% 30.08 in 10.0 mi Calm Calm - N/A   Clear
6:52 AM 33.1 °F - 18.0 °F 54% 30.11 in 10.0 mi Calm Calm - N/A   Clear
7:52 AM 32.0 °F - 19.0 °F 59% 30.12 in 10.0 mi Calm Calm - N/A   Clear
8:52 AM 35.1 °F - 21.0 °F 57% 30.12 in 10.0 mi Calm Calm - N/A   Clear
9:52 AM 42.1 °F 40.2 °F 21.9 °F 45% 30.14 in 10.0 mi South 3.5 mph - N/A   Clear
10:52 AM 52.0 °F - 24.1 °F 34% 30.12 in 10.0 mi NNE 3.5 mph - N/A   Clear
11:52 AM 57.9 °F - 26.1 °F 30% 30.10 in 10.0 mi NNE 6.9 mph - N/A   Partly Cloudy
12:52 PM 63.0 °F - 25.0 °F 24% 30.07 in 10.0 mi North 10.4 mph - N/A   Clear
1:52 PM 64.9 °F - 21.9 °F 19% 30.04 in 10.0 mi NNE 11.5 mph - N/A   Clear
2:52 PM 69.1 °F - 23.0 °F 18% 30.01 in 10.0 mi North 10.4 mph - N/A   Clear
3:52 PM 69.1 °F - 23.0 °F 18% 30.01 in 10.0 mi North 12.7 mph - N/A   Clear
4:52 PM 69.1 °F - 21.0 °F 16% 30.01 in 10.0 mi North 11.5 mph - N/A   Scattered Clouds
5:52 PM 66.9 °F - 21.0 °F 17% 30.03 in 10.0 mi North 10.4 mph - N/A   Partly Cloudy
6:52 PM 62.1 °F - 21.9 °F 21% 30.05 in 10.0 mi NNE 10.4 mph - N/A   Clear
7:52 PM 55.9 °F - 21.0 °F 26% 30.09 in 10.0 mi NNW 9.2 mph - N/A   Clear
8:52 PM 55.0 °F - 21.0 °F 27% 30.11 in 10.0 mi Calm Calm - N/A   Scattered Clouds
9:52 PM 51.1 °F - 21.9 °F 32% 30.12 in 10.0 mi South 10.4 mph - N/A   Mostly Cloudy
10:52 PM 52.0 °F - 24.1 °F 34% 30.10 in 10.0 mi South 10.4 mph - N/A   Mostly Cloudy
11:52 PM 50.0 °F - 28.0 °F 43% 30.10 in 10.0 mi SSW 6.9 mph - N/A   Clear